Terminal Aerodrome Forecast
Issued by NWS Rapid City, SD

Home | Current Version | Previous Version | Graphics & Text | Print | Product List | Glossary On
Versions: 1 2 3 4 5 6 7 8 9 10 11 12 13 14 15
000
FTUS43 KUNR 141700
TAFRAP
TAF
KRAP 141720Z 1418/1518 15008KT P6SM OVC045
     FM150000 08006KT P6SM BKN050
     FM150600 VRB04KT P6SM SKC
     FM151700 17008KT P6SM FEW250=

USA.gov is the U.S. government's official web portal to all federal, state and local government web resources and services.